Volver al catálogo

STARLINK-36751

ActivoComunicacionesSSO
NORAD 67729·PAYLOAD·🇺🇸 United States

Lanzado Feb 11, 2026 desde Vandenberg Space Force Base

Loading…

Próximos Pases (próximas 24 horas)

TLE

ActualizadoSource: CelesTrak SupGP

Época: Sep 14, 2026, 23:26 UTC

1 67729C 26026J   26257.97687500  .00022540  00000+0  69979-3 0  2573
2 67729  97.2845 309.8724 0001098  85.9398 255.0938 15.33423505    15

Sigue STARLINK-36751 en tiempo real con AllMySat

Download on the App Store